• In Germany
  • List of Countries
  • For 7 days
  • Water Temperature
  • Satellite Maps
  • Weather Map
  • Weather Widgets
  • user-avatar
    Login

    Hourly Weather Kerns

    Today, 30 April, Sunday

    Time Temperature Precipitation Wind Pressure Humidity
    00:00 +15°C° 0 mm 4 mps 761 mmHg 83%
    01:00 +16°C° 0 mm 3 mps 761 mmHg 80%
    02:00 +16°C° 0 mm 3 mps 761 mmHg 80%
    03:00 +16°C° 0 mm 3 mps 761 mmHg 80%
    04:00 +16°C° 0 mm 3 mps 760 mmHg 77%
    05:00 +16°C° 0 mm 3 mps 760 mmHg 79%
    06:00 +16°C° 0 mm 3 mps 760 mmHg 80%
    07:00 +17°C° 0 mm 3 mps 761 mmHg 82%
    08:00 +20°C° 0 mm 3 mps 761 mmHg 75%
    09:00 +24°C° 0 mm 3 mps 761 mmHg 68%
    10:00 +28°C° 0 mm 3 mps 761 mmHg 60%
    11:00 +29°C° 0 mm 4 mps 761 mmHg 58%
    12:00 +30°C° 0 mm 4 mps 760 mmHg 57%
    13:00 +30°C° 0 mm 4 mps 759 mmHg 55%
    14:00 +30°C° 0 mm 5 mps 759 mmHg 57%
    15:00 +30°C° 0 mm 5 mps 759 mmHg 58%
    16:00 +29°C° 0 mm 5 mps 759 mmHg 60%
    17:00 +27°C° 0 mm 5 mps 759 mmHg 71%
    18:00 +25°C° 0 mm 5 mps 759 mmHg 82%
    19:00 +21°C° 0 mm 5 mps 760 mmHg 93%
    20:00 +21°C° 0 mm 4 mps 760 mmHg 93%
    21:00 +20°C° 0 mm 4 mps 760 mmHg 94%
    22:00 +20°C° 0 mm 4 mps 761 mmHg 94%
    23:00 +20°C° 0 mm 4 mps 761 mmHg 95%

    Tomorrow, 1 May, Monday

    Time Temperature Precipitation Wind Pressure Humidity
    00:00 +20°C° 0 mm 4 mps 761 mmHg 95%
    01:00 +20°C° 0 mm 4 mps 760 mmHg 95%
    02:00 +20°C° 0.2 mm 4 mps 760 mmHg 96%
    03:00 +21°C° 0.2 mm 4 mps 760 mmHg 96%
    04:00 +21°C° 0.2 mm 4 mps 760 mmHg 97%
    05:00 +21°C° 0.2 mm 4 mps 760 mmHg 97%
    06:00 +21°C° 0.2 mm 4 mps 761 mmHg 97%
    07:00 +21°C° 0.2 mm 3 mps 761 mmHg 97%
    08:00 +23°C° 0.2 mm 4 mps 761 mmHg 88%
    09:00 +26°C° 0.2 mm 4 mps 761 mmHg 79%
    10:00 +29°C° 0.2 mm 4 mps 761 mmHg 70%
    11:00 +29°C° 0.2 mm 4 mps 760 mmHg 69%
    12:00 +29°C° 0.2 mm 4 mps 760 mmHg 67%
    13:00 +30°C° 0.2 mm 4 mps 760 mmHg 66%
    14:00 +29°C° 0.1 mm 4 mps 759 mmHg 67%
    15:00 +29°C° 0.1 mm 4 mps 759 mmHg 69%
    16:00 +29°C° 0.1 mm 4 mps 759 mmHg 70%
    17:00 +27°C° 0 mm 4 mps 759 mmHg 78%
    18:00 +25°C° 0 mm 4 mps 760 mmHg 86%
    19:00 +22°C° 0 mm 4 mps 760 mmHg 94%
    20:00 +22°C° 0 mm 4 mps 761 mmHg 95%
    21:00 +22°C° 0 mm 4 mps 761 mmHg 96%
    22:00 +21°C° 0 mm 4 mps 761 mmHg 96%
    23:00 +21°C° 0 mm 4 mps 761 mmHg 96%

    Day after tomorrow, 2 May, Tuesday

    Time Temperature Precipitation Wind Pressure Humidity
    00:00 +21°C° 0 mm 3 mps 761 mmHg 96%
    01:00 +21°C° 0 mm 3 mps 761 mmHg 96%
    02:00 +21°C° 0 mm 3 mps 760 mmHg 97%
    03:00 +21°C° 0 mm 3 mps 760 mmHg 97%
    04:00 +21°C° 0 mm 3 mps 760 mmHg 97%
    05:00 +21°C° 0 mm 3 mps 760 mmHg 97%
    06:00 +21°C° 0 mm 3 mps 760 mmHg 97%
    07:00 +21°C° 0 mm 3 mps 761 mmHg 97%
    08:00 +24°C° 0 mm 3 mps 761 mmHg 86%
    09:00 +27°C° 0 mm 3 mps 761 mmHg 75%
    10:00 +29°C° 0 mm 4 mps 761 mmHg 63%
    11:00 +30°C° 0 mm 4 mps 761 mmHg 60%
    12:00 +32°C° 0 mm 4 mps 760 mmHg 56%
    13:00 +33°C° 0 mm 4 mps 760 mmHg 53%
    14:00 +32°C° 0.1 mm 4 mps 759 mmHg 58%
    15:00 +32°C° 0.1 mm 4 mps 759 mmHg 63%
    16:00 +30°C° 0.1 mm 4 mps 758 mmHg 68%
    17:00 +28°C° 0.1 mm 4 mps 759 mmHg 77%
    18:00 +26°C° 0.1 mm 4 mps 759 mmHg 87%
    19:00 +24°C° 0.1 mm 3 mps 760 mmHg 96%
    20:00 +24°C° 0.1 mm 3 mps 760 mmHg 96%
    21:00 +24°C° 0.1 mm 3 mps 761 mmHg 97%
    22:00 +22°C° 0.1 mm 3 mps 761 mmHg 97%
    23:00 +22°C° 0.1 mm 3 mps 761 mmHg 97%

    3 May, Wednesday

    Time Temperature Precipitation Wind Pressure Humidity
    00:00 +22°C° 0.1 mm 3 mps 761 mmHg 97%
    01:00 +22°C° 0.1 mm 3 mps 760 mmHg 97%
    02:00 +22°C° 0 mm 3 mps 760 mmHg 97%
    03:00 +22°C° 0 mm 3 mps 760 mmHg 97%
    04:00 +21°C° 0 mm 3 mps 760 mmHg 97%
    05:00 +21°C° 0 mm 3 mps 760 mmHg 97%
    06:00 +22°C° 0 mm 3 mps 760 mmHg 97%
    07:00 +22°C° 0 mm 3 mps 761 mmHg 97%
    08:00 +25°C° 0 mm 3 mps 761 mmHg 86%
    09:00 +27°C° 0 mm 4 mps 761 mmHg 76%
    10:00 +29°C° 0 mm 4 mps 761 mmHg 66%
    11:00 +30°C° 0 mm 4 mps 761 mmHg 62%
    12:00 +32°C° 0 mm 4 mps 760 mmHg 59%
    13:00 +33°C° 0 mm 5 mps 760 mmHg 55%
    14:00 +32°C° 0 mm 5 mps 759 mmHg 58%
    15:00 +32°C° 0 mm 5 mps 759 mmHg 61%
    16:00 +30°C° 0 mm 5 mps 759 mmHg 64%
    17:00 +28°C° 0 mm 5 mps 760 mmHg 73%
    18:00 +26°C° 0 mm 5 mps 760 mmHg 83%
    19:00 +23°C° 0 mm 4 mps 760 mmHg 92%
    20:00 +23°C° 0 mm 4 mps 761 mmHg 93%
    21:00 +23°C° 0 mm 4 mps 761 mmHg 95%
    22:00 +22°C° 0 mm 4 mps 762 mmHg 96%
    23:00 +22°C° 0.1 mm 4 mps 762 mmHg 96%

    4 May, Thursday

    Time Temperature Precipitation Wind Pressure Humidity
    00:00 +22°C° 0.1 mm 4 mps 761 mmHg 95%
    01:00 +22°C° 0.1 mm 4 mps 761 mmHg 95%
    02:00 +22°C° 0 mm 4 mps 761 mmHg 95%
    03:00 +22°C° 0 mm 4 mps 761 mmHg 95%
    04:00 +22°C° 0 mm 5 mps 760 mmHg 95%
    05:00 +22°C° 0 mm 5 mps 761 mmHg 95%
    06:00 +22°C° 0 mm 5 mps 761 mmHg 95%
    07:00 +22°C° 0 mm 5 mps 762 mmHg 95%
    08:00 +25°C° 0 mm 5 mps 762 mmHg 88%
    09:00 +26°C° 0 mm 5 mps 762 mmHg 80%
    10:00 +28°C° 0 mm 5 mps 762 mmHg 73%
    11:00 +29°C° 0.1 mm 6 mps 762 mmHg 72%
    12:00 +29°C° 0.1 mm 6 mps 761 mmHg 70%
    13:00 +30°C° 0.1 mm 6 mps 760 mmHg 68%
    14:00 +29°C° 0.2 mm 6 mps 760 mmHg 70%
    15:00 +29°C° 0.2 mm 6 mps 760 mmHg 71%
    16:00 +29°C° 0.2 mm 6 mps 760 mmHg 72%
    17:00 +27°C° 0 mm 6 mps 760 mmHg 79%
    18:00 +26°C° 0 mm 5 mps 761 mmHg 85%
    19:00 +25°C° 0 mm 5 mps 761 mmHg 91%
    20:00 +23°C° 0.3 mm 5 mps 762 mmHg 92%
    21:00 +23°C° 0.3 mm 5 mps 762 mmHg 94%
    22:00 +23°C° 0.3 mm 5 mps 762 mmHg 95%
    23:00 +23°C° 0.7 mm 6 mps 762 mmHg 95%

    5 May, Friday

    Time Temperature Precipitation Wind Pressure Humidity
    00:00 +24°C° 0.7 mm 6 mps 762 mmHg 95%
    01:00 +24°C° 0.7 mm 6 mps 761 mmHg 95%
    02:00 +24°C° 0.6 mm 6 mps 761 mmHg 95%
    03:00 +24°C° 0.6 mm 6 mps 761 mmHg 95%
    04:00 +23°C° 0.6 mm 7 mps 761 mmHg 95%
    05:00 +24°C° 0.3 mm 7 mps 761 mmHg 94%
    06:00 +24°C° 0.3 mm 7 mps 762 mmHg 93%
    07:00 +24°C° 0.3 mm 7 mps 762 mmHg 92%
    08:00 +26°C° 0.1 mm 7 mps 762 mmHg 88%
    09:00 +26°C° 0.1 mm 7 mps 763 mmHg 85%
    10:00 +27°C° 0.1 mm 7 mps 763 mmHg 81%
    11:00 +27°C° 0.2 mm 7 mps 762 mmHg 78%
    12:00 +28°C° 0.2 mm 7 mps 762 mmHg 74%
    13:00 +29°C° 0.2 mm 7 mps 761 mmHg 71%
    14:00 +28°C° 0.1 mm 7 mps 761 mmHg 72%
    15:00 +28°C° 0.1 mm 7 mps 761 mmHg 73%
    16:00 +28°C° 0.1 mm 7 mps 761 mmHg 74%
    17:00 +27°C° 0.1 mm 7 mps 761 mmHg 79%
    18:00 +26°C° 0.1 mm 7 mps 762 mmHg 85%
    19:00 +24°C° 0.1 mm 6 mps 762 mmHg 90%
    20:00 +24°C° 0.5 mm 7 mps 762 mmHg 91%
    21:00 +24°C° 0.5 mm 7 mps 763 mmHg 92%
    22:00 +24°C° 0.5 mm 7 mps 763 mmHg 93%
    23:00 +24°C° 0.6 mm 7 mps 762 mmHg 92%
    Show more